When you browse on this site, cookies collect data to enhance your experience and personalize the content and advertising you see.
Visit our Privacy Policy to learn more. By continuing to use the site, you agree to this use of cookies and data.
  • In Romania
  • List of Countries
  • For 7 days
  • Water Temperature
  • Weather Map
  • Weather Widgets
  • user-avatar
    Login

    Hourly Weather Jazd

    Today, 22 August, Thursday

    Time Temperature Precipitation Wind Pressure Humidity
    00:00 +13°C° 0 mm 2 mps 561 mmHg 18%
    01:00 +13°C° 0 mm 2 mps 561 mmHg 18%
    02:00 +12°C° 0 mm 2 mps 560 mmHg 19%
    03:00 +10°C° 0 mm 2 mps 560 mmHg 20%
    04:00 +10°C° 0 mm 2 mps 559 mmHg 21%
    05:00 +12°C° 0 mm 2 mps 560 mmHg 19%
    06:00 +13°C° 0 mm 1 mps 561 mmHg 17%
    07:00 +14°C° 0 mm 1 mps 563 mmHg 15%
    08:00 +17°C° 0 mm 2 mps 564 mmHg 14%
    09:00 +19°C° 0 mm 2 mps 565 mmHg 12%
    10:00 +21°C° 0 mm 2 mps 566 mmHg 10%
    11:00 +22°C° 0 mm 3 mps 566 mmHg 9%
    12:00 +24°C° 0 mm 3 mps 566 mmHg 9%
    13:00 +25°C° 0 mm 4 mps 566 mmHg 8%
    14:00 +26°C° 0 mm 4 mps 566 mmHg 8%
    15:00 +26°C° 0 mm 4 mps 565 mmHg 8%
    16:00 +26°C° 0 mm 5 mps 565 mmHg 7%
    17:00 +23°C° 0 mm 5 mps 564 mmHg 9%
    18:00 +21°C° 0 mm 4 mps 563 mmHg 11%
    19:00 +19°C° 0 mm 4 mps 562 mmHg 12%
    20:00 +18°C° 0 mm 4 mps 562 mmHg 15%
    21:00 +16°C° 0 mm 3 mps 562 mmHg 17%
    22:00 +15°C° 0 mm 2 mps 561 mmHg 19%
    23:00 +14°C° 0 mm 2 mps 561 mmHg 22%

    Tomorrow, 23 August, Friday

    Time Temperature Precipitation Wind Pressure Humidity
    00:00 +14°C° 0 mm 2 mps 560 mmHg 24%
    01:00 +13°C° 0 mm 1 mps 560 mmHg 27%
    02:00 +12°C° 0 mm 1 mps 560 mmHg 29%
    03:00 +12°C° 0 mm 1 mps 559 mmHg 31%
    04:00 +11°C° 0 mm 1 mps 559 mmHg 33%
    05:00 +12°C° 0 mm 1 mps 560 mmHg 30%
    06:00 +14°C° 0 mm 1 mps 562 mmHg 28%
    07:00 +15°C° 0 mm 1 mps 563 mmHg 25%
    08:00 +17°C° 0 mm 2 mps 564 mmHg 22%
    09:00 +19°C° 0 mm 2 mps 565 mmHg 20%
    10:00 +21°C° 0 mm 2 mps 566 mmHg 17%
    11:00 +22°C° 0 mm 3 mps 566 mmHg 15%
    12:00 +24°C° 0 mm 3 mps 566 mmHg 14%
    13:00 +25°C° 0 mm 3 mps 566 mmHg 12%
    14:00 +26°C° 0 mm 3 mps 566 mmHg 12%
    15:00 +26°C° 0 mm 4 mps 566 mmHg 12%
    16:00 +26°C° 0 mm 4 mps 566 mmHg 11%
    17:00 +25°C° 0 mm 4 mps 565 mmHg 13%
    18:00 +22°C° 0 mm 4 mps 564 mmHg 15%
    19:00 +20°C° 0 mm 4 mps 564 mmHg 16%
    20:00 +19°C° 0 mm 4 mps 563 mmHg 18%
    21:00 +18°C° 0 mm 4 mps 563 mmHg 20%
    22:00 +16°C° 0 mm 3 mps 563 mmHg 21%
    23:00 +16°C° 0 mm 3 mps 563 mmHg 22%

    Day after tomorrow, 24 August, Saturday

    Time Temperature Precipitation Wind Pressure Humidity
    00:00 +14°C° 0 mm 3 mps 562 mmHg 22%
    01:00 +14°C° 0 mm 2 mps 562 mmHg 23%
    02:00 +13°C° 0 mm 2 mps 561 mmHg 24%
    03:00 +13°C° 0 mm 1 mps 561 mmHg 25%
    04:00 +12°C° 0 mm 1 mps 560 mmHg 26%
    05:00 +13°C° 0 mm 1 mps 561 mmHg 24%
    06:00 +14°C° 0 mm 1 mps 562 mmHg 22%
    07:00 +16°C° 0 mm 1 mps 564 mmHg 20%
    08:00 +19°C° 0 mm 1 mps 565 mmHg 18%
    09:00 +20°C° 0 mm 2 mps 566 mmHg 15%
    10:00 +23°C° 0 mm 2 mps 567 mmHg 13%
    11:00 +24°C° 0 mm 3 mps 567 mmHg 12%
    12:00 +25°C° 0 mm 3 mps 567 mmHg 10%
    13:00 +26°C° 0 mm 3 mps 567 mmHg 9%
    14:00 +26°C° 0 mm 4 mps 566 mmHg 9%
    15:00 +27°C° 0 mm 4 mps 566 mmHg 9%
    16:00 +27°C° 0 mm 5 mps 566 mmHg 9%
    17:00 +25°C° 0 mm 5 mps 565 mmHg 10%
    18:00 +22°C° 0 mm 4 mps 564 mmHg 11%
    19:00 +20°C° 0 mm 4 mps 563 mmHg 13%
    20:00 +19°C° 0 mm 4 mps 563 mmHg 14%
    21:00 +18°C° 0 mm 3 mps 563 mmHg 15%
    22:00 +16°C° 0 mm 3 mps 563 mmHg 17%
    23:00 +15°C° 0 mm 2 mps 562 mmHg 18%

    25 August, Sunday

    Time Temperature Precipitation Wind Pressure Humidity
    00:00 +14°C° 0 mm 2 mps 561 mmHg 19%
    01:00 +13°C° 0 mm 1 mps 561 mmHg 20%
    02:00 +13°C° 0 mm 1 mps 560 mmHg 21%
    03:00 +12°C° 0 mm 1 mps 560 mmHg 22%
    04:00 +11°C° 0 mm 1 mps 559 mmHg 24%
    05:00 +13°C° 0 mm 1 mps 561 mmHg 22%
    06:00 +14°C° 0 mm 1 mps 562 mmHg 20%
    07:00 +16°C° 0 mm 1 mps 563 mmHg 18%
    08:00 +18°C° 0 mm 2 mps 564 mmHg 15%
    09:00 +21°C° 0 mm 2 mps 565 mmHg 13%
    10:00 +24°C° 0 mm 3 mps 566 mmHg 10%
    11:00 +25°C° 0 mm 3 mps 566 mmHg 10%
    12:00 +26°C° 0 mm 4 mps 566 mmHg 9%
    13:00 +27°C° 0 mm 4 mps 567 mmHg 8%
    14:00 +27°C° 0 mm 4 mps 566 mmHg 8%
    15:00 +28°C° 0 mm 5 mps 566 mmHg 8%
    16:00 +28°C° 0 mm 5 mps 566 mmHg 7%
    17:00 +26°C° 0 mm 5 mps 565 mmHg 8%
    18:00 +22°C° 0 mm 4 mps 564 mmHg 10%
    19:00 +20°C° 0 mm 3 mps 563 mmHg 11%
    20:00 +19°C° 0 mm 3 mps 563 mmHg 12%
    21:00 +17°C° 0 mm 3 mps 563 mmHg 13%
    22:00 +16°C° 0 mm 2 mps 562 mmHg 14%
    23:00 +16°C° 0 mm 2 mps 562 mmHg 14%

    26 August, Monday

    Time Temperature Precipitation Wind Pressure Humidity
    00:00 +15°C° 0 mm 2 mps 562 mmHg 15%
    01:00 +15°C° 0 mm 2 mps 561 mmHg 15%
    02:00 +14°C° 0 mm 2 mps 561 mmHg 16%
    03:00 +13°C° 0 mm 1 mps 560 mmHg 17%
    04:00 +12°C° 0 mm 1 mps 560 mmHg 18%
    05:00 +14°C° 0 mm 1 mps 561 mmHg 16%
    06:00 +15°C° 0 mm 1 mps 562 mmHg 15%
    07:00 +18°C° 0 mm 1 mps 563 mmHg 13%
    08:00 +19°C° 0 mm 2 mps 564 mmHg 12%
    09:00 +23°C° 0 mm 2 mps 565 mmHg 10%
    10:00 +25°C° 0 mm 2 mps 567 mmHg 9%
    11:00 +26°C° 0 mm 3 mps 567 mmHg 9%
    12:00 +27°C° 0 mm 4 mps 567 mmHg 9%
    13:00 +28°C° 0 mm 5 mps 567 mmHg 8%
    14:00 +28°C° 0 mm 5 mps 567 mmHg 8%
    15:00 +28°C° 0 mm 5 mps 566 mmHg 8%
    16:00 +29°C° 0 mm 6 mps 566 mmHg 8%
    17:00 +26°C° 0 mm 5 mps 565 mmHg 10%
    18:00 +23°C° 0 mm 4 mps 564 mmHg 11%
    19:00 +21°C° 0 mm 4 mps 564 mmHg 13%
    20:00 +20°C° 0 mm 3 mps 563 mmHg 14%
    21:00 +18°C° 0 mm 3 mps 563 mmHg 16%
    22:00 +17°C° 0 mm 2 mps 562 mmHg 17%
    23:00 +16°C° 0 mm 2 mps 562 mmHg 18%

    27 August, Tuesday

    Time Temperature Precipitation Wind Pressure Humidity
    00:00 +16°C° 0 mm 2 mps 562 mmHg 19%
    01:00 +15°C° 0 mm 2 mps 561 mmHg 20%
    02:00 +14°C° 0 mm 2 mps 561 mmHg 20%
    03:00 +14°C° 0 mm 1 mps 561 mmHg 21%
    04:00 +13°C° 0 mm 1 mps 560 mmHg 22%
    05:00 +14°C° 0 mm 1 mps 561 mmHg 20%
    06:00 +15°C° 0 mm 1 mps 563 mmHg 18%
    07:00 +18°C° 0 mm 1 mps 564 mmHg 16%
    08:00 +19°C° 0 mm 2 mps 565 mmHg 14%
    09:00 +22°C° 0 mm 3 mps 566 mmHg 13%
    10:00 +25°C° 0 mm 4 mps 567 mmHg 11%
    11:00 +26°C° 0 mm 4 mps 567 mmHg 10%
    12:00 +27°C° 0 mm 5 mps 567 mmHg 10%
    13:00 +28°C° 0 mm 6 mps 567 mmHg 9%
    14:00 +28°C° 0 mm 7 mps 567 mmHg 9%
    15:00 +28°C° 0 mm 8 mps 567 mmHg 9%
    16:00 +28°C° 0 mm 8 mps 567 mmHg 10%
    17:00 +26°C° 0 mm 8 mps 566 mmHg 11%
    18:00 +23°C° 0 mm 7 mps 565 mmHg 13%
    19:00 +21°C° 0 mm 6 mps 565 mmHg 14%
    20:00 +20°C° 0 mm 5 mps 564 mmHg 16%
    21:00 +18°C° 0 mm 4 mps 564 mmHg 18%
    22:00 +17°C° 0 mm 3 mps 564 mmHg 20%
    23:00 +16°C° 0 mm 3 mps 563 mmHg 21%
    Show more